STARLINK-36034

Last updated on Wed Dec 31 2025 00:02:06 GMT+0000 (Coordinated Universal Time)

1 66609U 25270X 25364.62788771 .00060544 00000+0 14451-2 0 9994 2 66609 43.0014 88.8067 0002334 272.8294 87.2295 15.40698691 6956
UTC large
Height (km)
Speed (km/s)
/
Latitude / Longitude
Inclination (degrees)
Orbital Period (minutes)
Azimuth
Elevation
Range (km)
Doppler Factor

Next 0 passes for location: London (51.5072 / 0.1276)

Sorry there are no passes over London.